Volver al catálogo

STARLINK-32777

ActivoComunicacionesVLEO
NORAD 62525·PAYLOAD·🇺🇸 United States

Lanzado Jan 8, 2025 desde Cape Canaveral Space Force Station

Loading…

Próximos Pases (próximas 24 horas)

TLE

ActualizadoSource: CelesTrak SupGP

Época: Sep 14, 2026, 21:08 UTC

1 62525C 25004Q   26257.88104167  .00032599  00000+0  11809-2 0  2573
2 62525  43.0022 231.7694 0001330 261.1201 289.0043 15.27557407    15

Sigue STARLINK-32777 en tiempo real con AllMySat

Download on the App Store